Miscellaneous Local Product
Issued by NWS Hastings, NE

Home | Current Version | Previous Version | Graphics & Text | Print | Product List | Glossary On
Versions: 1 2 3 4 5 6 7 8 9 10 11 12 13 14 15 16 17 18 19 20 21 22 23 24 25 26 27 28 29 30 31 32 33 34 35 36 37 38 39 40 41 42 43 44 45 46 47 48 49 50
000
AXUS43 KGID 261602
MISGRI

GID CWA HOURLY WEATHER ROUNDUP
NATIONAL WEATHER SERVICE HASTINGS NE
1100 AM CDT MON JUN 26 2017

NOTE: "FAIR" INDICATES FEW OR NO CLOUDS BELOW 12,000 FEET WITH NO
SIGNIFICANT WEATHER AND/OR OBSTRUCTIONS TO VISIBILITY.

...SOUTH CENTRAL NEBRASKA...

CITY           SKY/WX    TMP DP  RH WIND       PRES   REMARKS
GRAND ISLAND   PTSUNNY   70  61  73 NW10      30.18F
HASTINGS       SUNNY     71  57  61 W13       30.19F
KEARNEY        CLOUDY    70  57  64 W7        30.19F
ORD            SUNNY     73  49  42 NE12      30.18S
YORK           LGT RAIN  73  57  56 W13       30.17F
AURORA         SUNNY     73  59  61 W10       30.18S
LEXINGTON      MOSUNNY   69  60  72 SW3       30.19F
HOLDREGE       PTSUNNY   67  59  76 W8        30.20F
HEBRON         CLOUDY    72  58  61 W3        30.18F

...NEBRASKA PANHANDLE...

CITY           SKY/WX    TMP DP  RH WIND       PRES   REMARKS
CHADRON        SUNNY     70  40  33 E9G18     30.24F
ALLIANCE       SUNNY     70  43  37 E12       30.24S
SCOTTSBLUFF    SUNNY     71  50  47 NE3       30.24F
SIDNEY         SUNNY     75  56  51 VRB6      30.24F

...WESTERN AND NORTH CENTRAL NEBRASKA...

CITY           SKY/WX    TMP DP  RH WIND       PRES   REMARKS
VALENTINE      SUNNY     71  38  29 NE13      30.23F
AINSWORTH      SUNNY     67  46  45 E12       30.24S
ONEILL         SUNNY     68  47  46 NE12G18   30.23S
BROKEN BOW     PTSUNNY   71  55  56 N7        30.19S
IMPERIAL       SUNNY     71  57  61 N7        30.21F
NORTH PLATTE   CLOUDY    66  61  84 N6        30.20F
MCCOOK         PTSUNNY   71  59  65 CALM      30.19F

...EASTERN NEBRASKA...

CITY           SKY/WX    TMP DP  RH WIND       PRES   REMARKS
NORFOLK        SUNNY     70  52  52 NE10      30.18S
SO SIOUX CITY  MOSUNNY   69  53  56 NE7       30.20F
TEKAMAH        SUNNY     68  54  60 VRB5      30.18F
COLUMBUS       SUNNY     70  58  65 N7        30.18F
ALBION         SUNNY     72  51  46 N8        30.18S
OMAHA EPPLEY   MOSUNNY   65  56  72 S7        30.19S
OFFUTT AFB     PTSUNNY   64  56  77 SE6       30.19S
MILLARD        CLOUDY    66  58  74 S6        30.19S
LINCOLN        CLOUDY    65  58  78 S8        30.19F
NEBRASKA CITY  CLOUDY    60  60  98 S10       30.20F
BEATRICE       PTSUNNY   67  56  69 E9        30.20F
FALLS CITY     TSTM      61  55  81 E9        30.23R

...NORTHERN KANSAS...

CITY           SKY/WX    TMP DP  RH WIND       PRES   REMARKS
GOODLAND       SUNNY     71  62  73 W6        30.21F
HILL CITY      MOSUNNY   69  62  78 W8        30.20F
NORTON         SUNNY     73  55  53 W8        30.18
PHILLIPSBURG   SUNNY     75  57  53 W8        30.18F
SMITH CENTER   SUNNY     73  55  53 S6        30.19F
HAYS           SUNNY     72  60  66 SW9       30.19F
RUSSELL        SUNNY     72  58  61 SW12      30.17F
CONCORDIA      PTSUNNY   72  59  63 SW7       30.18F
SALINA         MOSUNNY   78  58  49 SW14      30.17F
TOPEKA         CLOUDY    66  58  75 NE10      30.23R



USA.gov is the U.S. government's official web portal to all federal, state and local government web resources and services.